FW1714 Weather Reports


time (UTC)temp
F
wind
direction
speed
knots
gust
knots
rain 1hr
in
rain 24hr
in
rain mn
in
humidity
%
barometer
mb
20260906223852 83 293 0.0 1.7 0.00 0.00 0.00 38 1029.1
20260906223318 84 293 0.9 1.7 0.00 0.00 0.00 37 1029.1
20260906222816 84 294 0.0 1.7 0.00 0.00 0.00 37 1029.1
20260906222318 84 294 0.0 2.6 0.00 0.00 0.00 36 1029.2
20260906221830 85 294 0.9 2.6 0.00 0.00 0.00 36 1029.2
20260906221332 85 293 0.0 0.9 0.00 0.00 0.00 35 1029.2
20260906220828 85 293 0.0 0.0 0.00 0.00 0.00 36 1029.3
20260906220329 86 293 0.0 0.0 0.00 0.00 0.00 35 1029.3
20260906215823 86 293 0.0 2.6 0.00 0.00 0.00 35 1029.4
20260906215331 86 294 0.0 3.5 0.00 0.00 0.00 34 1029.5
20260906214829 86 290 1.7 3.5 0.00 0.00 0.00 34 1029.3
20260906214321 86 323 1.7 4.3 0.00 0.00 0.00 34 1029.5
20260906213837 86 327 1.7 4.3 0.00 0.00 0.00 35 1029.5
20260906213333 86 312 0.9 2.6 0.00 0.00 0.00 36 1029.6
20260906212829 85 311 0.9 2.6 0.00 0.00 0.00 35 1029.6
20260906212330 85 323 0.9 2.6 0.00 0.00 0.00 36 1029.7
20260906211826 84 323 0.9 3.5 0.00 0.00 0.00 37 1029.8
20260906211328 84 311 1.7 3.5 0.00 0.00 0.00 37 1029.8
20260906210844 83 131 0.0 1.7 0.00 0.00 0.00 39 1030.0
20260906210323 83 131 0.0 0.9 0.00 0.00 0.00 38 1030.1
20260906205817 83 131 0.0 0.0 0.00 0.00 0.00 38 1030.3
20260906205350 83 131 0.0 0.0 0.00 0.00 0.00 36 1030.3
20260906204826 83 131 0.0 0.0 0.00 0.00 0.00 37 1030.3
20260906204319 83 131 0.0 0.0 0.00 0.00 0.00 38 1030.4
20260906203816 83 131 0.0 0.0 0.00 0.00 0.00 38 1030.4
20260906203333 83 131 0.0 1.7 0.00 0.00 0.00 38 1030.4
20260906202830 83 131 0.0 1.7 0.00 0.00 0.00 38 1030.4
20260906202332 83 131 0.0 3.5 0.00 0.00 0.00 37 1030.5
20260906201849 84 131 0.0 1.7 0.00 0.00 0.00 37 1030.6
20260906201331 84 131 0.0 1.7 0.00 0.00 0.00 37 1030.6
20260906200822 84 132 0.0 1.7 0.00 0.00 0.00 37 1030.6
20260906200323 84 132 0.0 3.5 0.00 0.00 0.00 35 1030.5
20260906195831 85 131 0.9 6.1 0.00 0.00 0.00 37 1030.5
20260906195322 85 128 3.5 6.1 0.00 0.00 0.00 36 1030.6
20260906194826 85 125 0.9 4.3 0.00 0.00 0.00 37 1030.6
20260906194317 85 26 0.9 7.0 0.00 0.00 0.00 36 1030.7
20260906193815 84 325 3.5 7.0 0.00 0.00 0.00 38 1030.7
20260906193323 83 119 0.9 5.2 0.00 0.00 0.00 40 1030.7
20260906192821 83 168 1.7 6.1 0.00 0.00 0.00 40 1030.8
20260906192325 83 123 1.7 6.1 0.00 0.00 0.00 42 1031.0
20260906191839 83 128 1.7 6.1 0.00 0.00 0.00 41 1031.1
20260906191319 83 136 1.7 4.3 0.00 0.00 0.00 41 1031.3
20260906190836 83 348 0.0 5.2 0.00 0.00 0.00 42 1031.4
20260906190317 83 360 1.7 6.1 0.00 0.00 0.00 41 1031.4
20260906185852 83 129 0.9 6.1 0.00 0.00 0.00 41 1031.5
20260906185340 82 174 0.9 4.3 0.00 0.00 0.00 38 1031.6
20260906184836 83 125 1.7 6.1 0.00 0.00 0.00 38 1031.8
20260906184327 83 123 1.7 6.1 0.00 0.00 0.00 37 1031.7
20260906183824 82 109 0.9 2.6 0.00 0.00 0.00 37 1031.9
20260906183317 82 105 0.0 4.3 0.00 0.00 0.00 38 1031.9
20260906182815 82 69 0.9 4.3 0.00 0.00 0.00 37 1032.0
20260906182316 81 131 0.9 3.5 0.00 0.00 0.00 38 1032.1
20260906181854 81 133 0.9 3.5 0.00 0.00 0.00 38 1032.2
20260906181353 81 134 1.7 3.5 0.00 0.00 0.00 38 1032.4
20260906180846 81 150 1.7 4.3 0.00 0.00 0.00 37 1032.5
20260906180324 81 173 0.9 4.3 0.00 0.00 0.00 36 1032.5
20260906175821 81 123 0.9 4.3 0.00 0.00 0.00 39 1032.6
20260906175313 81 115 0.9 3.5 0.00 0.00 0.00 37 1032.6
20260906174829 81 94 1.7 3.5 0.00 0.00 0.00 37 1032.7
20260906174325 81 121 0.9 6.1 0.00 0.00 0.00 38 1032.9
20260906173840 80 118 0.0 6.1 0.00 0.00 0.00 38 1033.0
20260906173352 80 57 0.9 4.3 0.00 0.00 0.00 41 1033.0
20260906172827 80 178 0.9 4.3 0.00 0.00 0.00 39 1033.1
20260906172350 80 177 0.9 4.3 0.00 0.00 0.00 41 1033.1
20260906171826 80 165 0.9 4.3 0.00 0.00 0.00 42 1033.2
20260906171329 80 121 0.0 1.7 0.00 0.00 0.00 44 1033.2
20260906170826 79 126 0.9 2.6 0.00 0.00 0.00 44 1033.3
20260906170329 79 127 1.7 3.5 0.00 0.00 0.00 46 1033.4
20260906165826 78 138 0.9 3.5 0.00 0.00 0.00 46 1033.3
20260906165338 78 134 0.9 3.5 0.00 0.00 0.00 47 1033.4
20260906164854 78 123 0.9 3.5 0.00 0.00 0.00 45 1033.5
20260906164325 77 121 0.9 3.5 0.00 0.00 0.00 48 1033.5
20260906163822 77 121 0.9 2.6 0.00 0.00 0.00 48 1033.5
20260906163333 76 121 0.0 2.6 0.00 0.00 0.00 51 1033.4
20260906162831 76 121 0.9 1.7 0.00 0.00 0.00 52 1033.6
20260906162332 75 125 0.9 2.6 0.00 0.00 0.00 51 1033.5
20260906161848 74 125 0.0 2.6 0.00 0.00 0.00 53 1033.5
20260906161350 74 121 0.9 2.6 0.00 0.00 0.00 53 1033.5
20260906160827 74 120 0.9 2.6 0.00 0.00 0.00 53 1033.5
20260906160329 75 120 0.9 3.5 0.00 0.00 0.00 54 1033.6
20260906155823 74 119 0.0 3.5 0.00 0.00 0.00 55 1033.5
20260906155339 74 119 0.9 3.5 0.00 0.00 0.00 57 1033.5
20260906154830 74 117 0.9 3.5 0.00 0.00 0.00 60 1033.4
20260906154322 73 118 1.7 3.5 0.00 0.00 0.00 59 1033.5
20260906153820 73 116 0.9 3.5 0.00 0.00 0.00 62 1033.5
20260906153330 72 132 0.9 2.6 0.00 0.00 0.00 64 1033.5
20260906152824 71 162 0.0 2.6 0.00 0.00 0.00 65 1033.5
20260906152324 70 162 0.0 2.6 0.00 0.00 0.00 67 1033.5
20260906151820 69 162 0.0 2.6 0.00 0.00 0.00 69 1033.6
20260906151323 68 163 0.0 1.7 0.00 0.00 0.00 71 1033.7
20260906150840 67 163 0.0 1.7 0.00 0.00 0.00 71 1033.7
20260906150321 67 163 0.0 2.6 0.00 0.00 0.00 72 1033.6
20260906145819 66 163 0.0 2.6 0.00 0.00 0.00 72 1033.7
20260906145330 66 163 0.9 3.5 0.00 0.00 0.00 73 1033.8
20260906144848 66 163 0.0 0.9 0.00 0.00 0.00 73 1033.8
20260906144341 66 163 0.0 0.0 0.00 0.00 0.00 73 1033.8
20260906143815 66 163 0.0 0.0 0.00 0.00 0.00 73 1033.8
20260906143328 66 163 0.0 0.0 0.00 0.00 0.00 73 1033.8
20260906142820 66 163 0.0 0.0 0.00 0.00 0.00 73 1033.8
20260906142324 66 163 0.0 4.3 0.00 0.00 0.00 74 1033.7
20260906141838 65 163 0.9 4.3 0.00 0.00 0.00 75 1033.7
20260906141324 65 304 0.0 0.9 0.00 0.00 0.00 75 1033.7
20260906140819 64 305 0.0 0.9 0.00 0.00 0.00 76 1033.5
20260906140322 64 305 0.0 1.7 0.00 0.00 0.00 77 1033.6
20260906135855 63 305 0.0 1.7 0.00 0.00 0.00 78 1033.6
20260906135326 62 304 0.0 0.9 0.00 0.00 0.00 78 1033.5
20260906134846 62 304 0.0 0.9 0.00 0.00 0.00 79 1033.4
20260906134314 61 304 0.0 0.0 0.00 0.00 0.00 79 1033.5
20260906133827 61 304 0.0 0.0 0.00 0.00 0.00 80 1033.5
20260906133314 60 360 0.0 0.0 0.00 0.00 0.00 79 1033.6
20260906132833 60 360 0.0 0.0 0.00 0.00 0.00 77 1033.6
20260906132317 59 360 0.0 0.0 0.00 0.00 0.00 76 1033.6
20260906131830 59 360 0.0 0.0 0.00 0.00 0.00 75 1033.7
20260906131354 59 360 0.0 0.0 0.00 0.00 0.00 75 1033.6
20260906130851 59 360 0.0 0.0 0.00 0.00 0.00 74 1033.5
20260906130332 59 360 0.0 0.0 0.00 0.00 0.00 73 1033.6
20260906125825 59 360 0.0 0.0 0.00 0.00 0.00 73 1033.6
20260906125319 59 360 0.0 0.0 0.00 0.00 0.00 72 1033.6
20260906124815 59 360 0.0 0.0 0.00 0.00 0.00 72 1033.7
20260906124347 59 360 0.0 0.0 0.00 0.00 0.00 72 1033.6
20260906123825 59 360 0.0 0.0 0.00 0.00 0.00 72 1033.4
20260906123320 59 360 0.0 0.0 0.00 0.00 0.00 72 1033.4
20260906122826 59 360 0.0 0.0 0.00 0.00 0.00 72 1033.4
20260906122329 59 360 0.0 0.0 0.00 0.00 0.00 71 1033.3
20260906121820 59 360 0.0 0.0 0.00 0.00 0.00 71 1033.4
20260906121324 59 360 0.0 0.0 0.00 0.00 0.00 71 1033.5
20260906120821 60 360 0.0 0.0 0.00 0.00 0.00 71 1033.3
20260906120321 60 360 0.0 0.0 0.00 0.00 0.00 71 1033.3
20260906115817 60 360 0.0 0.0 0.00 0.00 0.00 70 1033.1
20260906115349 60 360 0.0 0.0 0.00 0.00 0.00 70 1033.2
20260906114825 60 360 0.0 0.0 0.00 0.00 0.00 70 1033.2
20260906114317 60 360 0.0 0.0 0.00 0.00 0.00 70 1033.2
20260906113854 60 360 0.0 0.0 0.00 0.00 0.00 70 1033.3
20260906113326 60 360 0.0 0.0 0.00 0.00 0.00 70 1033.2
20260906112843 60 360 0.0 0.0 0.00 0.00 0.00 69 1033.2
20260906112328 60 360 0.0 0.0 0.00 0.00 0.00 69 1033.2
20260906111824 60 360 0.0 0.0 0.00 0.00 0.00 68 1033.1
20260906111327 61 360 0.0 0.0 0.00 0.00 0.00 68 1033.0
20260906110847 61 360 0.0 0.0 0.00 0.00 0.00 68 1033.0
20260906110326 61 360 0.0 0.0 0.00 0.00 0.00 68 1033.0
20260906105835 61 360 0.0 0.0 0.00 0.00 0.00 67 1033.1
20260906105314 61 360 0.0 0.0 0.00 0.00 0.00 67 1033.2
20260906104850 61 360 0.0 0.0 0.00 0.00 0.00 67 1033.2
20260906104321 61 360 0.0 0.0 0.00 0.00 0.00 66 1033.3
20260906103827 61 360 0.0 0.0 0.00 0.00 0.00 66 1033.1
20260906103315 61 360 0.0 0.0 0.00 0.00 0.00 65 1033.1
20260906102832 61 360 0.0 0.0 0.00 0.00 0.00 65 1033.1
20260906102317 62 360 0.0 0.0 0.00 0.00 0.00 64 1033.2
20260906101815 62 360 0.0 0.0 0.00 0.00 0.00 64 1033.2
20260906101337 62 360 0.0 0.0 0.00 0.00 0.00 63 1033.3
20260906100814 62 360 0.0 0.0 0.00 0.00 0.00 63 1033.3
20260906100320 62 360 0.0 0.0 0.00 0.00 0.00 63 1033.3
20260906095837 62 360 0.0 0.0 0.00 0.00 0.00 62 1033.2
20260906095328 63 360 0.0 0.0 0.00 0.00 0.00 61 1033.2
20260906094842 63 360 0.0 0.0 0.00 0.00 0.00 61 1033.1
20260906094332 63 360 0.0 0.0 0.00 0.00 0.00 60 1033.1
20260906093829 63 360 0.0 0.0 0.00 0.00 0.00 60 1033.0
20260906093325 63 360 0.0 0.0 0.00 0.00 0.00 59 1033.0
20260906092837 63 360 0.0 0.0 0.00 0.00 0.00 58 1033.1
20260906092319 64 360 0.0 0.0 0.00 0.00 0.00 57 1032.9
20260906091815 64 360 0.0 0.0 0.00 0.00 0.00 57 1032.9
20260906091340 64 360 0.0 0.0 0.00 0.00 0.00 56 1032.9
20260906090816 64 304 0.0 0.0 0.00 0.00 0.00 55 1032.7
20260906090318 64 304 0.0 0.0 0.00 0.00 0.00 56 1032.5
20260906085816 65 304 0.0 0.0 0.00 0.00 0.00 55 1032.6
20260906085349 65 304 0.0 0.0 0.00 0.00 0.00 54 1032.5
20260906084825 65 304 0.0 0.0 0.00 0.00 0.00 54 1032.5
20260906084322 65 304 0.0 0.0 0.00 0.00 0.00 53 1032.5
20260906083821 65 304 0.0 0.0 0.00 0.00 0.00 53 1032.4
20260906083332 65 304 0.0 0.0 0.00 0.00 0.00 53 1032.2
20260906082830 66 304 0.0 0.0 0.00 0.00 0.00 53 1032.2
20260906082313 66 304 0.0 0.0 0.00 0.00 0.00 52 1032.2
20260906081830 66 304 0.0 0.0 0.00 0.00 0.00 52 1032.2
20260906081333 66 304 0.0 0.0 0.00 0.00 0.00 52 1032.0
20260906080851 66 360 0.0 0.0 0.00 0.00 0.00 52 1032.1
20260906080324 67 304 0.0 0.0 0.00 0.00 0.00 52 1032.3
20260906075822 67 360 0.0 0.0 0.00 0.00 0.00 51 1032.3
20260906075315 67 360 0.0 0.0 0.00 0.00 0.00 50 1032.4
20260906074832 67 302 0.0 0.0 0.00 0.00 0.00 50 1032.4
20260906074324 68 303 0.0 0.0 0.00 0.00 0.00 50 1032.4
20260906073820 68 304 0.0 0.0 0.00 0.00 0.00 49 1032.4
20260906073317 68 304 0.0 0.0 0.00 0.00 0.00 48 1032.5
20260906072854 69 304 0.0 0.0 0.00 0.00 0.00 48 1032.4
20260906072315 69 304 0.0 0.0 0.00 0.00 0.00 47 1032.5
20260906071833 70 304 0.0 0.0 0.00 0.00 0.00 47 1032.4
20260906071313 70 304 0.0 0.0 0.00 0.00 0.00 46 1032.5
20260906070850 70 304 0.0 0.0 0.00 0.00 0.00 45 1032.4
20260906070331 71 304 0.0 0.0 0.00 0.00 0.00 45 1032.3
20260906065828 71 304 0.0 0.0 0.00 0.00 0.00 44 1032.3
20260906065323 72 304 0.0 0.0 0.00 0.00 0.00 43 1032.3
20260906064850 72 304 0.0 0.0 0.00 0.00 0.00 43 1032.4
20260906064321 72 304 0.0 0.0 0.00 0.00 0.00 42 1032.3
20260906063838 73 304 0.0 0.0 0.00 0.00 0.00 41 1032.3
20260906063328 73 304 0.0 0.0 0.00 0.00 0.00 41 1032.3
20260906062844 74 304 0.0 0.0 0.00 0.00 0.00 40 1032.3
20260906062327 74 304 0.0 0.0 0.00 0.00 0.00 40 1032.5
20260906061833 74 304 0.0 0.0 0.00 0.00 0.00 40 1032.4
20260906061316 74 304 0.0 0.0 0.00 0.00 0.00 38 1032.2
20260906060814 74 304 0.0 1.7 0.00 0.00 0.00 38 1032.1
20260906060320 74 304 0.9 1.7 0.00 0.00 0.00 38 1032.1
20260906055835 74 304 0.0 0.9 0.00 0.00 0.00 39 1032.3
20260906055326 75 304 0.0 0.0 0.00 0.00 0.00 39 1032.4
20260906054844 75 304 0.0 0.0 0.00 0.00 0.00 38 1032.6
20260906054314 76 304 0.0 0.0 0.00 0.00 0.00 38 1032.6
20260906053830 76 304 0.0 0.0 0.00 0.00 0.00 37 1032.9
20260906053323 76 304 0.0 0.9 0.00 0.00 0.00 37 1033.0
20260906052824 76 304 0.0 0.9 0.00 0.00 0.00 36 1033.1
20260906052327 77 304 0.0 0.9 0.00 0.00 0.00 36 1033.1
20260906051823 77 304 0.0 1.7 0.00 0.00 0.00 35 1033.1
20260906051326 77 304 0.0 1.7 0.00 0.00 0.00 35 1033.1
20260906050823 78 304 0.0 0.9 0.00 0.00 0.00 34 1032.8
20260906050325 78 304 0.0 1.7 0.00 0.00 0.00 34 1032.5
20260906045823 79 304 0.0 1.7 0.00 0.00 0.00 33 1032.5
20260906045320 79 304 0.0 1.7 0.00 0.00 0.00 33 1032.2
20260906044839 79 306 0.0 3.5 0.00 0.00 0.00 32 1032.1
20260906044330 79 307 0.0 5.2 0.00 0.00 0.00 32 1032.1
20260906043846 79 311 1.7 5.2 0.00 0.00 0.00 32 1032.0
20260906043319 79 196 0.9 2.6 0.00 0.00 0.00 32 1032.1
20260906042817 79 196 0.0 2.6 0.00 0.00 0.00 32 1031.9
20260906042320 79 196 0.9 4.3 0.00 0.00 0.00 31 1031.8
20260906041817 79 196 2.6 4.3 0.00 0.00 0.00 31 1031.8
20260906041319 79 266 1.7 4.3 0.00 0.00 0.00 31 1031.8
20260906040830 78 240 1.7 4.3 0.00 0.00 0.00 31 1031.9
20260906040329 77 331 0.9 4.3 0.00 0.00 0.00 32 1032.1
20260906035827 77 213 0.9 1.7 0.00 0.00 0.00 33 1032.0
20260906035320 77 213 0.0 0.9 0.00 0.00 0.00 33 1031.8
20260906034814 78 213 0.0 0.9 0.00 0.00 0.00 33 1031.8
20260906034331 78 214 0.0 0.9 0.00 0.00 0.00 33 1031.5
20260906033823 79 214 0.0 1.7 0.00 0.00 0.00 32 1031.5
20260906033316 79 214 0.0 1.7 0.00 0.00 0.00 31 1031.3
20260906032828 80 213 0.0 1.7 0.00 0.00 0.00 31 1031.2
20260906032319 80 231 0.0 6.1 0.00 0.00 0.00 30 1031.0
20260906031816 80 248 0.9 7.0 0.00 0.00 0.00 29 1030.9
20260906031340 80 190 3.5 7.8 0.00 0.00 0.00 30 1030.9
20260906030837 80 252 3.5 7.8 0.00 0.00 0.00 29 1030.9
20260906030319 81 212 2.6 7.0 0.00 0.00 0.00 29 1030.7
20260906025832 81 180 2.6 7.0 0.00 0.00 0.00 28 1030.6
20260906025325 81 214 2.6 6.1 0.00 0.00 0.00 28 1030.4
20260906024823 81 217 1.7 7.0 0.00 0.00 0.00 28 1030.4
20260906024314 82 148 3.5 6.1 0.00 0.00 0.00 28 1030.3
20260906023830 82 202 1.7 5.2 0.00 0.00 0.00 28 1030.4
20260906023343 82 262 2.6 7.8 0.00 0.00 0.00 28 1030.4
20260906022824 83 238 3.5 7.8 0.00 0.00 0.00 27 1030.4
20260906022327 83 233 1.7 7.8 0.00 0.00 0.00 27 1030.4
20260906021824 83 182 1.7 4.3 0.00 0.00 0.00 27 1030.2
20260906021326 83 263 1.7 5.2 0.00 0.00 0.00 27 1030.1
20260906020825 83 311 1.7 7.0 0.00 0.00 0.00 27 1030.1
20260906020324 83 266 3.5 7.0 0.00 0.00 0.00 27 1029.9
20260906015823 82 293 3.5 12.2 0.00 0.00 0.00 27 1030.0
20260906015315 82 355 6.1 12.2 0.00 0.00 0.00 28 1030.2
20260906014831 83 241 3.5 7.8 0.00 0.00 0.00 27 1030.4
20260906014323 83 238 4.3 7.0 0.00 0.00 0.00 27 1030.5
20260906013822 83 270 2.6 7.8 0.00 0.00 0.00 27 1030.3
20260906013332 83 268 3.5 7.0 0.00 0.00 0.00 27 1030.3
20260906012829 83 222 3.5 7.0 0.00 0.00 0.00 27 1030.2
20260906012336 83 320 1.7 6.1 0.00 0.00 0.00 27 1030.2
20260906011831 83 346 2.6 6.1 0.00 0.00 0.00 27 1030.2
20260906011316 83 297 0.9 7.8 0.00 0.00 0.00 27 1030.2
20260906010814 83 290 2.6 7.8 0.00 0.00 0.00 27 1030.2
20260906010316 83 273 1.7 7.8 0.00 0.00 0.00 27 1030.3
20260906005853 83 324 2.6 7.8 0.00 0.00 0.00 26 1030.3
20260906005325 84 306 0.9 7.0 0.00 0.00 0.00 26 1030.3
20260906004844 84 286 2.6 8.7 0.00 0.00 0.00 26 1030.4
20260906004314 84 296 2.6 8.7 0.00 0.00 0.00 26 1030.4
20260906003829 84 303 4.3 8.7 0.00 0.00 0.00 26 1030.4
20260906003342 84 300 2.6 8.7 0.00 0.00 0.00 26 1030.4
20260906002819 84 315 3.5 8.7 0.00 0.00 0.00 26 1030.4
20260906002322 85 290 3.5 9.6 0.00 0.00 0.00 26 1030.5
20260906001840 85 285 3.5 10.4 0.00 0.00 0.00 26 1030.5
20260906001320 86 304 3.5 10.4 0.00 0.00 0.00 25 1030.6
20260906000816 86 313 2.6 9.6 0.00 0.00 0.00 25 1030.4
20260906000340 88 313 2.6 7.0 0.00 0.00 0.00 26 1030.4
20260905235820 89 237 1.7 4.3 0.00 0.00 0.00 26 1030.3
20260905235353 89 287 0.9 3.5 0.00 0.00 0.00 22 1030.2
20260905234825 88 280 1.7 2.6 0.00 0.00 0.00 22 1030.1
20260905234318 87 285 0.9 2.6 0.00 0.00 0.00 22 1030.3
20260905233815 87 286 0.9 2.6 0.00 0.00 0.00 22 1030.2
20260905233327 87 286 0.9 1.7 0.00 0.00 0.00 23 1030.2
20260905232824 87 286 0.0 1.7 0.00 0.00 0.00 23 1030.1
20260905232327 88 286 0.0 1.7 0.00 0.00 0.00 23 1030.1
20260905231825 88 286 0.0 0.9 0.00 0.00 0.00 23 1030.0
20260905231348 88 286 0.0 0.9 0.00 0.00 0.00 22 1029.9
20260905230819 89 286 0.0 0.9 0.00 0.00 0.00 22 1030.0
20260905230320 89 286 0.0 0.0 0.00 0.00 0.00 22 1029.9
20260905225818 89 286 0.0 0.0 0.00 0.00 0.00 23 1029.9
20260905225351 89 286 0.0 0.0 0.00 0.00 0.00 23 1029.9
20260905224824 89 286 0.0 0.9 0.00 0.00 0.00 22 1029.8
20260905224318 90 286 0.0 0.9 0.00 0.00 0.00 20 1029.7